| time (UTC) | temp F | wind direction | speed MPH | gust MPH | rain 1hr in | rain 24hr in | rain mn in | humidity % | barometer mb |
| 20260505012548 | 67 | 229 | 1.0 | 4.0 | 0.00 | 0.00 | 0.00 | 68 | 1015.7 |
| 20260505012048 | 67 | 225 | 2.0 | 4.0 | 0.00 | 0.00 | 0.00 | 68 | 1016.0 |
| 20260505011550 | 67 | 191 | 1.0 | 4.0 | 0.00 | 0.00 | 0.00 | 70 | 1015.9 |
| 20260505011048 | 68 | 191 | 1.0 | 4.0 | 0.00 | 0.00 | 0.00 | 66 | 1015.9 |
| 20260505010548 | 68 | 190 | 1.0 | 4.0 | 0.00 | 0.00 | 0.00 | 65 | 1015.9 |
| 20260505010058 | 68 | 190 | 2.0 | 4.0 | 0.00 | 0.00 | 0.00 | 65 | 1016.0 |
| 20260505005548 | 69 | 190 | 2.0 | 5.0 | 0.00 | 0.00 | 0.00 | 64 | 1016.0 |
| 20260505005048 | 69 | 190 | 2.0 | 5.0 | 0.00 | 0.00 | 0.00 | 63 | 1015.9 |
| 20260505004554 | 69 | 192 | 3.0 | 10.0 | 0.00 | 0.00 | 0.00 | 62 | 1015.9 |
| 20260505004046 | 69 | 213 | 3.0 | 10.0 | 0.00 | 0.00 | 0.00 | 62 | 1015.8 |
| 20260505003547 | 69 | 217 | 1.0 | 8.0 | 0.00 | 0.00 | 0.00 | 61 | 1015.8 |
| 20260505003050 | 70 | 198 | 3.0 | 8.0 | 0.00 | 0.00 | 0.00 | 60 | 1015.9 |
| 20260505002551 | 70 | 201 | 2.0 | 7.0 | 0.00 | 0.00 | 0.00 | 59 | 1015.7 |
| 20260505002048 | 70 | 190 | 3.0 | 7.0 | 0.00 | 0.00 | 0.00 | 59 | 1015.6 |
| 20260505001603 | 70 | 234 | 3.0 | 8.0 | 0.00 | 0.00 | 0.00 | 58 | 1015.6 |
| 20260505001048 | 71 | 199 | 2.0 | 8.0 | 0.00 | 0.00 | 0.00 | 56 | 1015.6 |
| 20260505000548 | 71 | 205 | 3.0 | 9.0 | 0.00 | 0.00 | 0.00 | 55 | 1015.6 |
| 20260505000122 | 71 | 205 | 3.0 | 9.0 | 0.00 | 0.00 | 0.00 | 53 | 1015.5 |
| 20260504235548 | 71 | 212 | 5.0 | 9.0 | 0.00 | 0.00 | 0.00 | 51 | 1015.6 |
| 20260504235048 | 72 | 205 | 3.0 | 10.0 | 0.00 | 0.00 | 0.00 | 50 | 1015.6 |
| 20260504234607 | 72 | 221 | 4.0 | 10.0 | 0.00 | 0.00 | 0.00 | 48 | 1015.5 |
| 20260504234048 | 72 | 190 | 4.0 | 11.0 | 0.00 | 0.00 | 0.00 | 49 | 1015.5 |
| 20260504233551 | 73 | 220 | 4.0 | 11.0 | 0.00 | 0.00 | 0.00 | 46 | 1015.8 |
| 20260504233103 | 73 | 188 | 3.0 | 11.0 | 0.00 | 0.00 | 0.00 | 48 | 1015.6 |
| 20260504232548 | 74 | 207 | 5.0 | 11.0 | 0.00 | 0.00 | 0.00 | 44 | 1015.5 |
| 20260504232048 | 73 | 193 | 4.0 | 9.0 | 0.00 | 0.00 | 0.00 | 44 | 1015.5 |
| 20260504231550 | 74 | 227 | 4.0 | 10.0 | 0.00 | 0.00 | 0.00 | 46 | 1015.5 |
| 20260504231047 | 75 | 192 | 5.0 | 14.0 | 0.00 | 0.00 | 0.00 | 44 | 1015.6 |
| 20260504230547 | 75 | 221 | 6.0 | 14.0 | 0.00 | 0.00 | 0.00 | 43 | 1015.6 |
| 20260504230054 | 75 | 207 | 7.0 | 14.0 | 0.00 | 0.00 | 0.00 | 43 | 1015.5 |
| 20260504225547 | 75 | 214 | 6.0 | 11.0 | 0.00 | 0.00 | 0.00 | 45 | 1015.5 |
| 20260504225051 | 76 | 186 | 4.0 | 11.0 | 0.00 | 0.00 | 0.00 | 46 | 1015.6 |
| 20260504224606 | 76 | 225 | 6.0 | 11.0 | 0.00 | 0.00 | 0.00 | 44 | 1015.7 |
| 20260504224048 | 76 | 196 | 6.0 | 14.0 | 0.00 | 0.00 | 0.00 | 44 | 1015.6 |
| 20260504223548 | 76 | 209 | 5.0 | 14.0 | 0.00 | 0.00 | 0.00 | 45 | 1015.6 |
| 20260504223055 | 76 | 196 | 6.0 | 13.0 | 0.00 | 0.00 | 0.00 | 43 | 1015.6 |
| 20260504222549 | 76 | 211 | 6.0 | 12.0 | 0.00 | 0.00 | 0.00 | 43 | 1015.5 |
| 20260504222048 | 76 | 227 | 4.0 | 13.0 | 0.00 | 0.00 | 0.00 | 44 | 1015.7 |
| 20260504221549 | 77 | 194 | 7.0 | 13.0 | 0.00 | 0.00 | 0.00 | 38 | 1015.8 |
| 20260504221045 | 77 | 186 | 5.0 | 15.0 | 0.00 | 0.00 | 0.00 | 41 | 1015.8 |
| 20260504220548 | 77 | 221 | 6.0 | 15.0 | 0.00 | 0.00 | 0.00 | 41 | 1015.7 |
| 20260504220100 | 77 | 200 | 6.0 | 11.0 | 0.00 | 0.00 | 0.00 | 41 | 1015.7 |
| 20260504215547 | 77 | 177 | 6.0 | 12.0 | 0.00 | 0.00 | 0.00 | 41 | 1015.6 |
| 20260504215051 | 77 | 204 | 7.0 | 16.0 | 0.00 | 0.00 | 0.00 | 39 | 1015.5 |
| 20260504214550 | 77 | 230 | 6.0 | 16.0 | 0.00 | 0.00 | 0.00 | 37 | 1015.5 |
| 20260504214045 | 78 | 198 | 7.0 | 15.0 | 0.00 | 0.00 | 0.00 | 37 | 1015.5 |
| 20260504213545 | 78 | 205 | 7.0 | 13.0 | 0.00 | 0.00 | 0.00 | 39 | 1015.5 |
| 20260504213126 | 77 | 169 | 5.0 | 12.0 | 0.00 | 0.00 | 0.00 | 40 | 1015.5 |
| 20260504212546 | 78 | 224 | 7.0 | 12.0 | 0.00 | 0.00 | 0.00 | 37 | 1015.5 |
| 20260504212052 | 78 | 237 | 7.0 | 17.0 | 0.00 | 0.00 | 0.00 | 38 | 1015.6 |
| 20260504211603 | 78 | 184 | 7.0 | 17.0 | 0.00 | 0.00 | 0.00 | 41 | 1015.6 |
| 20260504211048 | 78 | 244 | 7.0 | 13.0 | 0.00 | 0.00 | 0.00 | 43 | 1015.6 |
| 20260504210548 | 78 | 202 | 6.0 | 14.0 | 0.00 | 0.00 | 0.00 | 38 | 1015.5 |
| 20260504210055 | 79 | 204 | 7.0 | 16.0 | 0.00 | 0.00 | 0.00 | 39 | 1015.6 |
| 20260504205549 | 78 | 229 | 7.0 | 16.0 | 0.00 | 0.00 | 0.00 | 36 | 1015.5 |
| 20260504205048 | 78 | 205 | 7.0 | 14.0 | 0.00 | 0.00 | 0.00 | 38 | 1015.6 |
| 20260504204556 | 78 | 229 | 6.0 | 14.0 | 0.00 | 0.00 | 0.00 | 38 | 1015.6 |
| 20260504204050 | 79 | 182 | 7.0 | 14.0 | 0.00 | 0.00 | 0.00 | 37 | 1015.6 |
| 20260504203550 | 79 | 205 | 7.0 | 14.0 | 0.00 | 0.00 | 0.00 | 36 | 1015.7 |
| 20260504203117 | 80 | 201 | 6.0 | 14.0 | 0.00 | 0.00 | 0.00 | 33 | 1015.7 |
| 20260504202545 | 79 | 211 | 6.0 | 12.0 | 0.00 | 0.00 | 0.00 | 35 | 1015.8 |
| 20260504202048 | 79 | 220 | 6.0 | 14.0 | 0.00 | 0.00 | 0.00 | 34 | 1015.8 |
| 20260504201558 | 79 | 178 | 6.0 | 14.0 | 0.00 | 0.00 | 0.00 | 32 | 1015.9 |
| 20260504201047 | 79 | 180 | 7.0 | 14.0 | 0.00 | 0.00 | 0.00 | 31 | 1015.9 |
| 20260504200547 | 80 | 177 | 6.0 | 12.0 | 0.00 | 0.00 | 0.00 | 35 | 1016.1 |
| 20260504200059 | 79 | 226 | 6.0 | 13.0 | 0.00 | 0.00 | 0.00 | 35 | 1016.0 |
| 20260504195550 | 79 | 188 | 7.0 | 13.0 | 0.00 | 0.00 | 0.00 | 31 | 1016.0 |
| 20260504195049 | 81 | 186 | 7.0 | 13.0 | 0.00 | 0.00 | 0.00 | 31 | 1016.1 |
| 20260504194608 | 80 | 165 | 5.0 | 11.0 | 0.00 | 0.00 | 0.00 | 30 | 1016.0 |
| 20260504194048 | 80 | 198 | 6.0 | 12.0 | 0.00 | 0.00 | 0.00 | 29 | 1016.2 |
| 20260504193549 | 80 | 233 | 7.0 | 12.0 | 0.00 | 0.00 | 0.00 | 29 | 1016.3 |
| 20260504193057 | 81 | 215 | 6.0 | 13.0 | 0.00 | 0.00 | 0.00 | 34 | 1016.3 |
| 20260504192548 | 80 | 224 | 8.0 | 13.0 | 0.00 | 0.00 | 0.00 | 31 | 1016.4 |
| 20260504192048 | 80 | 209 | 5.0 | 14.0 | 0.00 | 0.00 | 0.00 | 31 | 1016.5 |
| 20260504191557 | 81 | 221 | 6.0 | 14.0 | 0.00 | 0.00 | 0.00 | 29 | 1016.6 |
| 20260504191048 | 81 | 211 | 5.0 | 15.0 | 0.00 | 0.00 | 0.00 | 28 | 1016.5 |
| 20260504190550 | 80 | 240 | 7.0 | 15.0 | 0.00 | 0.00 | 0.00 | 28 | 1016.6 |
| 20260504190115 | 81 | 246 | 5.0 | 14.0 | 0.00 | 0.00 | 0.00 | 29 | 1016.7 |
| 20260504185548 | 80 | 251 | 6.0 | 14.0 | 0.00 | 0.00 | 0.00 | 32 | 1016.7 |
| 20260504185047 | 80 | 258 | 5.0 | 12.0 | 0.00 | 0.00 | 0.00 | 30 | 1016.7 |
| 20260504184605 | 80 | 229 | 6.0 | 12.0 | 0.00 | 0.00 | 0.00 | 28 | 1016.7 |
| 20260504184050 | 80 | 192 | 6.0 | 12.0 | 0.00 | 0.00 | 0.00 | 29 | 1016.6 |
| 20260504183549 | 80 | 238 | 6.0 | 14.0 | 0.00 | 0.00 | 0.00 | 29 | 1016.6 |
| 20260504183050 | 81 | 221 | 6.0 | 14.0 | 0.00 | 0.00 | 0.00 | 32 | 1016.7 |
| 20260504182550 | 80 | 167 | 5.0 | 14.0 | 0.00 | 0.00 | 0.00 | 30 | 1016.7 |
| 20260504182049 | 80 | 227 | 8.0 | 13.0 | 0.00 | 0.00 | 0.00 | 33 | 1016.7 |
| 20260504181549 | 80 | 213 | 7.0 | 11.0 | 0.00 | 0.00 | 0.00 | 30 | 1016.7 |
| 20260504181048 | 81 | 175 | 4.0 | 10.0 | 0.00 | 0.00 | 0.00 | 30 | 1016.9 |
| 20260504180548 | 80 | 188 | 4.0 | 9.0 | 0.00 | 0.00 | 0.00 | 27 | 1016.9 |
| 20260504180051 | 80 | 176 | 3.0 | 9.0 | 0.00 | 0.00 | 0.00 | 29 | 1016.9 |
| 20260504175551 | 80 | 200 | 3.0 | 10.0 | 0.00 | 0.00 | 0.00 | 30 | 1017.0 |
| 20260504175048 | 81 | 208 | 4.0 | 10.0 | 0.00 | 0.00 | 0.00 | 32 | 1016.9 |
| 20260504174601 | 80 | 225 | 5.0 | 10.0 | 0.00 | 0.00 | 0.00 | 33 | 1017.0 |
| 20260504174048 | 80 | 181 | 3.0 | 9.0 | 0.00 | 0.00 | 0.00 | 30 | 1017.0 |
| 20260504173548 | 80 | 0 | 3.0 | 9.0 | 0.00 | 0.00 | 0.00 | 31 | 1017.0 |
| 20260504173056 | 80 | 197 | 4.0 | 9.0 | 0.00 | 0.00 | 0.00 | 29 | 1017.0 |
| 20260504172547 | 80 | 142 | 3.0 | 9.0 | 0.00 | 0.00 | 0.00 | 28 | 1017.0 |
| 20260504172051 | 79 | 194 | 4.0 | 11.0 | 0.00 | 0.00 | 0.00 | 29 | 1017.3 |
| 20260504171548 | 79 | 188 | 5.0 | 11.0 | 0.00 | 0.00 | 0.00 | 33 | 1017.4 |
| 20260504171052 | 78 | 162 | 5.0 | 10.0 | 0.00 | 0.00 | 0.00 | 30 | 1017.6 |
| 20260504170548 | 78 | 189 | 4.0 | 10.0 | 0.00 | 0.00 | 0.00 | 30 | 1017.6 |
| 20260504151048 | 75 | 92 | 4.0 | 10.0 | 0.00 | 0.00 | 0.00 | 34 | 1018.7 |
| 20260504150549 | 75 | 20 | 5.0 | 10.0 | 0.00 | 0.00 | 0.00 | 32 | 1018.6 |
| 20260504141049 | 73 | 78 | 4.0 | 9.0 | 0.00 | 0.00 | 0.00 | 40 | 1018.8 |
| 20260504140547 | 73 | 92 | 4.0 | 9.0 | 0.00 | 0.00 | 0.00 | 43 | 1018.8 |
| 20260504140108 | 72 | 85 | 4.0 | 9.0 | 0.00 | 0.00 | 0.00 | 42 | 1018.8 |
| 20260504130550 | 65 | 71 | 3.0 | 8.0 | 0.00 | 0.00 | 0.00 | 53 | 1018.5 |
| 20260504110549 | 54 | 21 | 2.0 | 5.0 | 0.00 | 0.00 | 0.00 | 69 | 1017.8 |
| 20260504110116 | 54 | 17 | 2.0 | 5.0 | 0.00 | 0.00 | 0.00 | 70 | 1017.7 |
| 20260504100546 | 54 | 0 | 0.0 | 0.0 | 0.00 | 0.00 | 0.00 | 75 | 1017.7 |
| 20260504090117 | 54 | 0 | 0.0 | 0.0 | 0.00 | 0.00 | 0.00 | 82 | 1017.7 |
| 20260504081555 | 54 | 0 | 0.0 | 0.0 | 0.00 | 0.00 | 0.00 | 83 | 1017.8 |
| 20260504081047 | 54 | 0 | 0.0 | 0.0 | 0.00 | 0.00 | 0.00 | 83 | 1017.7 |
| 20260504080551 | 54 | 0 | 0.0 | 0.0 | 0.00 | 0.00 | 0.00 | 84 | 1017.8 |
| 20260504050545 | 57 | 0 | 0.0 | 0.0 | 0.00 | 0.00 | 0.00 | 80 | 1018.6 |
| 20260504050106 | 57 | 0 | 0.0 | 0.0 | 0.00 | 0.00 | 0.00 | 80 | 1018.5 |
| 20260504045547 | 57 | 0 | 0.0 | 0.0 | 0.00 | 0.00 | 0.00 | 80 | 1018.5 |
| 20260504045048 | 57 | 0 | 0.0 | 0.0 | 0.00 | 0.00 | 0.00 | 79 | 1018.5 |
| 20260504044601 | 57 | 0 | 0.0 | 0.0 | 0.00 | 0.00 | 0.00 | 79 | 1018.6 |
| 20260504044048 | 58 | 0 | 0.0 | 0.0 | 0.00 | 0.00 | 0.00 | 78 | 1018.6 |
| 20260504043548 | 58 | 0 | 0.0 | 0.0 | 0.00 | 0.00 | 0.00 | 78 | 1018.7 |
| 20260504043059 | 58 | 0 | 0.0 | 0.0 | 0.00 | 0.00 | 0.00 | 78 | 1018.8 |
| 20260504042544 | 58 | 0 | 0.0 | 0.0 | 0.00 | 0.00 | 0.00 | 78 | 1018.8 |
| 20260504042043 | 58 | 0 | 0.0 | 2.0 | 0.00 | 0.00 | 0.00 | 78 | 1018.7 |
| 20260504041549 | 58 | 0 | 0.0 | 2.0 | 0.00 | 0.00 | 0.00 | 77 | 1018.7 |
| 20260504041043 | 58 | 0 | 1.0 | 3.0 | 0.00 | 0.00 | 0.00 | 76 | 1018.8 |
| 20260504040545 | 58 | 317 | 1.0 | 3.0 | 0.00 | 0.00 | 0.00 | 77 | 1018.9 |
| 20260504040048 | 58 | 317 | 1.0 | 2.0 | 0.00 | 0.00 | 0.00 | 77 | 1018.8 |
| 20260504035545 | 58 | 317 | 1.0 | 3.0 | 0.00 | 0.00 | 0.00 | 77 | 1018.8 |
| 20260504035043 | 58 | 317 | 1.0 | 3.0 | 0.00 | 0.00 | 0.00 | 77 | 1018.6 |
| 20260504034554 | 59 | 317 | 1.0 | 3.0 | 0.00 | 0.00 | 0.00 | 76 | 1018.6 |
| 20260504034045 | 59 | 317 | 1.0 | 3.0 | 0.00 | 0.00 | 0.00 | 75 | 1018.7 |
| 20260504033544 | 59 | 317 | 2.0 | 3.0 | 0.00 | 0.00 | 0.00 | 75 | 1018.7 |
| 20260504033056 | 59 | 317 | 1.0 | 3.0 | 0.00 | 0.00 | 0.00 | 75 | 1018.7 |
| 20260504032547 | 59 | 317 | 1.0 | 3.0 | 0.00 | 0.00 | 0.00 | 74 | 1018.7 |
| 20260504032045 | 60 | 317 | 2.0 | 3.0 | 0.00 | 0.00 | 0.00 | 74 | 1018.6 |
| 20260504031550 | 60 | 317 | 1.0 | 3.0 | 0.00 | 0.00 | 0.00 | 74 | 1018.7 |
| 20260504031046 | 60 | 317 | 1.0 | 3.0 | 0.00 | 0.00 | 0.00 | 73 | 1018.6 |
| 20260504030549 | 60 | 317 | 2.0 | 3.0 | 0.00 | 0.00 | 0.00 | 72 | 1018.6 |
| 20260504030054 | 60 | 316 | 1.0 | 3.0 | 0.00 | 0.00 | 0.00 | 71 | 1018.5 |
| 20260504025544 | 60 | 317 | 1.0 | 3.0 | 0.00 | 0.00 | 0.00 | 70 | 1018.5 |
| 20260504025044 | 61 | 317 | 1.0 | 3.0 | 0.00 | 0.00 | 0.00 | 70 | 1018.5 |
| 20260504024551 | 61 | 317 | 2.0 | 3.0 | 0.00 | 0.00 | 0.00 | 70 | 1018.6 |
| 20260504024044 | 61 | 317 | 2.0 | 3.0 | 0.00 | 0.00 | 0.00 | 69 | 1018.6 |
| 20260504023545 | 62 | 317 | 1.0 | 3.0 | 0.00 | 0.00 | 0.00 | 68 | 1018.6 |
| 20260504023050 | 62 | 317 | 1.0 | 4.0 | 0.00 | 0.00 | 0.00 | 68 | 1018.5 |
| 20260504022545 | 62 | 317 | 1.0 | 4.0 | 0.00 | 0.00 | 0.00 | 67 | 1018.4 |
| 20260504022047 | 62 | 317 | 2.0 | 4.0 | 0.00 | 0.00 | 0.00 | 67 | 1018.3 |
| 20260504021554 | 62 | 317 | 2.0 | 3.0 | 0.00 | 0.00 | 0.00 | 67 | 1018.3 |
| 20260504021046 | 62 | 317 | 2.0 | 3.0 | 0.00 | 0.00 | 0.00 | 66 | 1018.3 |
| 20260504020544 | 63 | 318 | 1.0 | 3.0 | 0.00 | 0.00 | 0.00 | 65 | 1018.2 |
| 20260504020047 | 64 | 319 | 1.0 | 4.0 | 0.00 | 0.00 | 0.00 | 64 | 1018.2 |
| 20260504015545 | 64 | 319 | 1.0 | 4.0 | 0.00 | 0.00 | 0.00 | 61 | 1018.1 |
| 20260504015047 | 65 | 319 | 2.0 | 3.0 | 0.00 | 0.00 | 0.00 | 60 | 1018.1 |
| 20260504014550 | 65 | 311 | 2.0 | 4.0 | 0.00 | 0.00 | 0.00 | 61 | 1018.2 |
| 20260504014044 | 65 | 312 | 1.0 | 4.0 | 0.00 | 0.00 | 0.00 | 60 | 1018.1 |
| 20260504013545 | 66 | 311 | 2.0 | 5.0 | 0.00 | 0.00 | 0.00 | 59 | 1018.0 |
| 20260504013051 | 66 | 309 | 2.0 | 5.0 | 0.00 | 0.00 | 0.00 | 58 | 1017.9 |